Погода в Юрьевеце

Погода в Юрьевеце : погода сейчас, прогноз погоды и архив. Всё, что Вы хотите узнать о погоде в Юрьевеце!

Хотите узнать прогноз погоды в Юрьевеце? Тогда Вам сюда: Погода в Юрьевеце

Поиск расширенной информации на нашем сайте:

Другие новости

Новости СМИ2

Главная страница сайта

Новости сайта

03.07.2017

Напоминаем, что на нашем специализированном сайте Метеоцентр.Азия вы можете получить высокодетализированные автоматические прогнозы погоды по пунктам России, СНГ и мира в авиационном формате (включающие направление и скорость ветра, видимость, явления погоды, количество и форму облачности, нижнюю и верхнюю границу облачности).


Погода в Юрьевеце - сегодня

Время (UTC), дата Ветер
(°,м/с) 
Видим.   Явления Облачность Т
(°С)
Тd
(°С)
f(%) Тe
(°С)
Pmin
(гПа)
dP
(гПа)
Po
(мм)
O2
(г/м3)
Тmin Tmax R s Состояние
почвы
03 12.12.17 140 (ЮВ) 10 км    10/10 600 м 
[Sc]
+0.3 -1.3 89 -1  1014.6  0.7  749  301  -0.4    0.6  14  равномерный
мокрый или
старый снег
100% 
06 12.12.17 150 (ЮВ) 4000 м  слаб. снег  10/10 300 м 
[Sc]
-0.6 -1.6 93 -1  1017  2.3  750  303  -0.6         
09 12.12.17 150 (ЮВ) 10 км  в посл. час снег  9/9 600 м 
[Sc]
-0.3 -2.5 85 -1  1018.2  1.1  751  303           
12 12.12.17 150 (ЮВ) 10 км  {снег}  10/10 600 м 
[Sc]
-0.6 -3.1 83 -1  1019.2  0.9  752  304           
15 12.12.17 120 (ЮВ) 10 км    10/10 600 м 
[Sc]
-0.7 -2.3 89 -3  1019.4  0.2  752  304    +0.3  0.5     
18 12.12.17 120 (ЮВ) 10 км    10/10 300 м 
[Sc]
-0.7 -2.4 88 -3  1018.7  -0.6  752  304           
21 12.12.17 140 (ЮВ) 10 км    10/10 300 м 
[Sc]
-0.5 -1.6 92 -2  1018  -0.8  751  303           
00 13.12.17 140 (ЮВ) 10 км    10/10 300 м 
[Sc]
-0.4 -1.3 94 -2  1016.2  -1.8  750  303           
03 13.12.17 140 (ЮВ) 3{10}  4000 м  слаб. снег  10/10 300 м 
[Sc]
-0 -0.7 95 -2  1013.2  -2.8  748  301  -0.7    0.0     
06 13.12.17 150 (ЮВ) 4{10}  4000 м  слаб. снег  10/10 300 м 
[Frnb|Ns]
+0.8 +0 94 -2  1012.1  -1  747  300           
09 13.12.17 160 (Ю) 5-11{12}  4000 м  слаб. дождь  10/10 300 м 
[Frnb|Ns]
+1.3 +0.5 94 -1  1010.8  -1.2  746  299           
12 13.12.17 160 (Ю) 4{12}  4000 м  слаб. дождь{морось}  10/10 300 м 
[Frnb|Ns]
+1.4 +0.8 96 -1  1010.2  -0.6  745  299           
15 13.12.17 160 (Ю) 3{11}  4000 м  слаб. дождь  10/10 300 м 
[Frnb|Ns]
+1.3 +0.7 96 1010.7  0.5  746  299    +1.6  10     
18 13.12.17 190 (Ю) 4000 м  слаб. дождь  10/10 300 м 
[Frnb|Ns]
+1.3 +0.6 95 +2  1012.2  1.4  747  299           
21 13.12.17 220 (ЮЗ) 10 км  {дождь}  10/10 300 м 
[Sc]
+1.6 +0.9 95 +2  1013.2  748  299           
00 14.12.17 170 (Ю) 10 км  {дождь}  10/10 300 м 
[Sc]
+1.2 +0.6 96 +2  1014.5  1.2  749  300           
03 14.12.17 180 (Ю) 4000 м  дымка  10/10 300 м 
[Sc]
+1 +0.4 96 +2  1014.9  0.4  749  301  +1    14  равномерный
мокрый или
старый снег
100% 
06 14.12.17 130 (ЮВ) 1000 м  слаб. дождь{туман}  10/10 300 м 
[Frnb|Ns]
+0.6 +0.1 96 +1  1014.8  0.1  749  301  +0.6         
09 14.12.17 080 (В) 1000 м  сильн. снег  10/10 300 м 
[Frnb|Ns]
+0.1 -0.4 96 +1  1013.7  -1.2  748  301           
12 14.12.17 110 (В) 0500 м  туман{снег, дождь}  ?/?  
-0 -0.6 96 +1  1012  -1.6  747  301           
15 14.12.17 150 (ЮВ) 2000 м  дождь{снег}  10/10 300 м 
[Frnb|Ns]
+1 +0.4 96 -1  1011  -0.9  746  299    +1     
18 14.12.17 150 (ЮВ) 4000 м  слаб. дождь{снег}  10/10 300 м 
[Frnb|Ns]
+2.5 +1.8 95 1010.5  -0.4  746  297           
21 14.12.17 160 (Ю) 5-10{11}  4000 м  слаб. дождь  10/10 300 м 
[Frnb|Ns]
+2 +1.1 94 -1  1010.5  746  298           
00 15.12.17 160 (Ю) 4{11}  4000 м  слаб. дождь  10/10 300 м 
[Frnb|Ns]
+2 +1.1 94 1010.1  -0.4  745  298           
03 15.12.17 150 (ЮВ) 4{10}  4000 м  слаб. снег{дождь}  10/10 300 м 
[Frnb|Ns]
+0.7 -0.3 93 -2  1010.4  0.2  745  300  +0.7    10  10  равномерный
мокрый или
старый снег
100% 
Время (UTC), дата Ветер
(°,м/с) 
Видим.   Явления Облачность Т
(°С)
Тd
(°С)
f(%) Тe
(°С)
Pmin
(гПа)
dP
(гПа)
Po
(мм)
O2
(г/м3)
Тmin Tmax R s Состояние
почвы

Для получения пояснительной информации подведите курсор к названию столбца.

ПОГОДА в Юрьевеце - архив

Всё, что Вы хотите узнать о погоде в Юрьевеце - удобно и подробно!

Выберите нужную дату (начиная с 1 января 2015* года) и нажмите кнопку "Найти".
Будут отображены архивные сводки погоды по пункту Юрьевец, начиная с указанной даты.


Отображать данные в формате CSV (для использования в таблицах Excel)


Внимание! Наш архив погоды предназначен исключительно для личного некоммерческого использования в познавательных целях. Если Вам необходимы официальные справки о состоянии погоды (для производственных, юридических, коммерческих и т.п. целей), обращайтесь в органы Росгидромета.

*Примечание: данная дата относится к архиву по метеостанциям СССР (Россия, СНГ, Балтия).
Архив по метеостанциям Зарубежной Европы и Азии (кроме Китая) хранится 10 дней, по другим регионам земного шара (Китай, Африка, Америка, Австралия, Океания) - 1 день.

Юрьевец - район местоположения метеостанции


Название, широта, долгота, высота метеостанции:
Юрьевец 57.3°ш. 43.1°д. 132 м над ур. моря [Российская Федерация]

Дополнительная информация

В oтличие oт бoльшинства пoгoдных сайтoв мы публикуем пoдрoбную метеoинфoрмацию в детальнoм прoфессиoнальнoм фoрмате.

Характеристики температуры и влажнoсти вoздуха измеряются на высoте 2 м в тени вдали oт зданий и деревьев.
Скoрoсть ветра измеряется на высoте 10 м (на урoвне рoста челoвека скoрoсть ветра ниже в 1.5-2 раза). Если метеoстанция нахoдится в гoрoде или в лесу, тo скoрoсть ветра занижена на 2-4 м/с пo сравнению с oткрытым местoм. Скoрoсть ветра над акватoриями крупных рек и oзёр, а также на вершинах хoлмoв на 2-5 м/с выше, чем в oбычных услoвиях.
Атмoсфернoе давление в разных тoчках местнoсти мoжет значительнo oтличаться oт давления на метеoстанции, в зависимoсти oт услoвий рельефа (при пoдъёме на 10 м давление пoнижается примернo на 1 мм рт.ст.).